Home > Weather > Leipzig > Past weeks

Flag for Germany Past Weather in Leipzig, Saxony, Germany — Yesterday and Last 2 Weeks

Now
68 °F

Fog.


Feels Like: 68 °F
Forecast: 62 / 73 °F
Wind: 7 mph from Northeast

Location: Leipzig-Schkeuditz

Current Time: May 29, 2016 at 11:16:28 PM

Latest Report: May 29, 2016 at 10:20 PM


Visibility: 3 mi

Pressure: 29.65 "Hg

Humidity: 88%

Dew Point: 64 °F

Location of LeipzigLocation

Past Weather in Leipzig — Graph

°F

Leipzig Temperature Yesterday

Maximum temperature yesterday: 75 °F (at 3:50 PM)
Minimum temperature yesterday: 54 °F (at 3:50 AM)
Average temperature yesterday: 65 °F

High & Low Weather Summary for the Past Weeks

 TemperatureHumidityPressure
High82 °F (May 22, 2:50 PM)100% (May 23, 9:20 PM)30.07 "Hg (May 23, 9:20 PM)
Low37 °F (May 15, 2:20 AM)28% (May 22, 3:20 PM)29.65 "Hg (May 29, 7:20 PM)
Average58 °F74%29.93 "Hg
* Reported May 14 10:20 PM — May 29 10:20 PM, Leipzig, Weather by CustomWeather, © 2016

Note: Actual official high and low records may vary slightly from our data, if they occured in-between our weather recording intervals... More about our weather records

Advertising

Leipzig Weather History for the Previous 24 Hours

Scroll right to see more
 ConditionsComfort  
Time TempWeatherWind HumidityBarometerVisibility
10:20 PM
Sun, May 29
68 °FFog.7 mph88%29.65 "Hg3 mi
9:50 PM68 °FFog.9 mph94%29.65 "Hg4 mi
9:20 PM70 °FBroken clouds.8 mph78%29.65 "HgN/A
8:50 PM70 °FBroken clouds.6 mph83%29.68 "HgN/A
8:20 PM70 °FBroken clouds.6 mph83%29.68 "HgN/A
7:50 PM72 °FBroken clouds.6 mph78%29.68 "HgN/A
7:20 PM72 °FBroken clouds.6 mph78%29.65 "HgN/A
6:50 PM75 °FPartly sunny.7 mph65%29.68 "HgN/A
6:20 PM77 °FScattered clouds.8 mph61%29.68 "HgN/A
5:50 PM77 °FScattered clouds.6 mph61%29.68 "HgN/A
5:20 PM75 °FScattered clouds.9 mph65%29.68 "HgN/A
4:50 PM75 °FPartly sunny.8 mph65%29.68 "HgN/A
4:20 PM75 °FPartly sunny.7 mph65%29.71 "HgN/A
3:50 PM75 °FSprinkles. Partly sunny.7 mph65%29.71 "HgN/A
3:20 PM75 °FBroken clouds.8 mph69%29.71 "HgN/A
2:50 PM77 °FBroken clouds.10 mph61%29.71 "HgN/A
2:20 PM77 °FBroken clouds.9 mph61%29.71 "HgN/A
1:50 PM77 °FBroken clouds.10 mph61%29.71 "HgN/A
1:20 PM77 °FScattered clouds.8 mph61%29.74 "HgN/A
12:50 PM75 °FPassing clouds.5 mph61%29.74 "HgN/A
12:20 PM75 °FScattered clouds.7 mph65%29.74 "HgN/A
11:50 AM73 °FScattered clouds.7 mph69%29.74 "HgN/A
11:20 AM73 °FScattered clouds.8 mph65%29.74 "HgN/A
10:50 AM72 °FPassing clouds.7 mph69%29.74 "HgN/A
10:20 AM70 °FPassing clouds.5 mph73%29.77 "HgN/A
9:50 AM70 °FSunny.6 mph73%29.74 "Hg10 mi
9:20 AM68 °FSunny.3 mph78%29.77 "Hg10 mi
8:50 AM68 °FPassing clouds.3 mph73%29.77 "HgN/A
8:20 AM66 °FSunny.8 mph78%29.74 "Hg10 mi
7:50 AM64 °FSunny.8 mph83%29.74 "Hg10 mi
7:20 AM64 °FSunny.8 mph83%29.77 "Hg10 mi
6:50 AM63 °FSunny.6 mph88%29.77 "Hg10 mi
6:20 AM61 °FSunny.5 mph94%29.77 "Hg10 mi
5:50 AM61 °FClear.2 mph88%29.77 "Hg10 mi
5:20 AM61 °FClear.5 mph88%29.77 "Hg10 mi
4:50 AM61 °FClear.6 mph88%29.80 "Hg10 mi
4:20 AM61 °FClear.7 mph88%29.80 "Hg10 mi
3:50 AM61 °FClear.8 mph88%29.80 "Hg10 mi
3:20 AM63 °FClear.8 mph83%29.80 "Hg10 mi
2:50 AM63 °FClear.9 mph83%29.80 "Hg10 mi
2:20 AM63 °FPassing clouds.9 mph83%29.80 "HgN/A
1:50 AM63 °FPassing clouds.8 mph83%29.83 "HgN/A
1:20 AM63 °FClear.7 mph83%29.83 "Hg10 mi
12:50 AM63 °FClear.8 mph83%29.83 "Hg10 mi
12:20 AM64 °FClear.8 mph78%29.83 "Hg10 mi
11:50 PM
Sat, May 28
64 °FClear.7 mph78%29.86 "Hg10 mi
11:20 PM64 °FClear.8 mph78%29.86 "Hg10 mi
Weather by CustomWeather, © 2016

See weather overviewHow to use our weather pages